RH
23 23 27 23 20 16 15 14 14 15 19 25 22 19 16 15 17 20 19 16 14 14 14 17 21 24 26 28 28 30 34 38 42 49 52 54 54 53 56 55 46 45 46 46
23 25 20 16 18 20 19 18 17 18 16 21 19 18 15 14 15 17 18 17 14 13 13 17 22 24 27 28 32 33 34 37 40 45 46 47 47 49 49 52 48 46 46 48
20 19 18 20 22 20 20 21 19 19 20 17 20 25 22 15 14 15 15 16 14 13 14 16 22 25 30 28 32 33 35 37 39 40 47 49 49 58 58 59 60 53 46 49
17 19 20 25 20 20 27 19 21 21 25 28 21 25 22 15 17 16 17 16 16 14 15 17 21 26 30 29 32 33 36 37 36 42 45 50 57 60 63 61 62 60 51 50
27 25 26 24 20 21 29 27 24 26 27 29 25 27 16 16 18 16 15 15 16 16 16 17 19 22 26 30 35 35 38 40 39 44 48 54 58 62 64 66 64 64 61 53
19 21 21 22 19 22 25 25 27 31 35 43 26 23 21 16 14 13 12 15 14 14 16 16 18 23 26 36 40 42 40 44 46 49 53 55 58 61 64 65 67 69 69 67
18 20 20 23 26 28 29 31 44 56 52 42 20 24 20 14 13 12 11 14 15 15 17 19 22 26 32 43 46 46 45 45 48 53 56 60 64 69 70 71 73 70 71 71
25 27 22 20 22 29 28 28 38 47 47 39 29 34 23 15 10 11 11 14 16 17 19 24 28 31 36 42 47 45 47 47 46 51 57 61 65 75 76 74 74 72 67 63
19 25 20 20 20 24 28 34 33 33 26 35 32 26 22 16 14 13 14 17 19 18 22 27 31 35 36 41 46 46 46 46 44 47 56 61 64 66 69 65 66 70 65 57
19 25 23 22 23 22 32 27 32 31 48 60 29 24 27 22 17 16 16 20 23 21 22 26 28 33 34 35 41 43 43 44 44 46 52 53 56 55 58 59 59 60 61 61
23 21 32 25 27 25 30 29 30 32 38 48 53 34 21 21 17 16 17 20 24 25 24 25 25 28 30 31 37 39 40 39 40 45 47 46 50 47 47 50 53 54 56 57
19 24 26 27 20 20 22 22 23 43 40 38 48 45 19 21 18 15 15 18 23 26 25 25 24 25 28 30 34 35 35 36 38 42 44 47 48 46 46 47 47 49 50 54
23 27 31 34 35 29 27 23 23 22 32 51 60 38 18 21 20 16 15 18 21 25 26 24 26 26 27 28 31 32 33 36 37 39 43 45 48 48 48 48 47 44 43 44
40 29 28 29 33 30 31 27 23 24 38 31 32 30 26 26 25 22 18 17 18 24 24 24 25 25 25 27 28 29 30 34 36 37 39 46 48 51 52 50 45 45 44 43
33 34 27 21 18 22 24 26 25 26 22 28 24 21 17 15 25 21 19 19 17 20 23 25 28 25 24 24 25 25 29 32 36 36 39 44 51 53 50 48 49 50 50 47
31 35 28 25 20 20 22 21 23 24 22 21 20 19 14 13 14 14 17 18 18 17 21 23 26 24 20 19 24 24 28 31 34 37 38 43 47 48 50 50 52 56 54 53
33 38 34 33 25 25 28 21 20 21 21 22 25 18 15 17 15 15 15 14 19 15 16 21 22 23 20 19 22 29 28 32 33 36 37 40 43 44 49 50 55 55 58 60
35 38 43 49 34 47 24 24 20 17 16 19 17 18 17 17 14 17 17 17 16 19 16 16 21 24 26 28 28 31 34 34 36 38 37 37 40 43 48 53 55 58 62 66
30 38 80 58 46 27 23 24 22 26 25 18 17 16 15 15 18 16 16 16 18 18 21 16 18 25 28 29 28 28 33 37 39 38 37 37 39 48 53 58 60 66 69 72
25 30 41 68 72 59 29 23 21 23 27 22 20 18 16 19 30 22 19 18 19 18 18 23 22 22 31 28 33 29 35 34 35 37 40 40 48 51 57 60 67 70 71 68
32 37 46 45 53 39 26 25 22 32 34 29 25 17 21 26 22 23 22 25 29 29 28 24 25 26 28 34 35 32 34 34 35 45 46 50 54 57 57 64 69 72 74 73
41 46 52 44 52 49 23 27 22 24 32 29 26 31 33 31 28 26 26 28 28 29 33 29 32 32 32 37 32 37 34 36 42 49 52 57 58 53 58 67 73 73 76 80
44 33 40 40 38 24 24 25 25 21 17 26 34 34 33 33 31 31 30 31 30 30 33 34 37 39 37 41 41 44 40 41 54 54 61 60 58 60 60 67 74 78 77 80
32 28 36 37 27 25 25 23 23 26 25 23 28 30 34 32 34 33 33 34 31 32 34 35 37 42 45 45 41 44 45 56 56 61 63 62 63 62 62 61 67 74 77 78
37 30 27 28 24 26 25 24 24 26 26 26 30 30 34 37 36 35 34 33 32 33 36 36 40 46 48 48 45 55 59 57 58 59 60 61 62 62 63 64 73 71 73 71
49 45 38 32 23 22 22 22 20 23 26 26 26 29 32 34 38 35 36 35 33 34 38 39 42 47 54 54 63 64 61 58 58 58 60 63 64 67 70 73 73 75 75 75
Wind_Speed
8 3 7 4 8 5 6 6 7 2 6 1 9 11 11 9 12 11 10 9 9 11 11 11 10 10 9 9 8 10 10 9 6 4 4 4 4 3 3 5 7 7 6 7
3 8 4 6 4 5 7 7 8 3 5 2 9 11 10 11 10 11 10 10 10 9 10 10 11 10 10 9 9 8 9 9 6 5 4 4 4 5 5 5 6 8 7 7
7 3 3 1 2 5 8 5 5 5 6 12 7 11 7 10 8 8 7 6 9 10 11 11 11 11 10 10 10 10 9 9 7 8 4 2 2 2 1 2 3 5 8 8
6 4 1 2 5 4 6 6 3 5 6 2 4 6 4 8 8 9 9 9 7 10 9 10 12 10 10 10 9 10 10 9 8 9 6 7 5 5 4 4 5 6 8 8
1 3 3 5 4 4 2 3 4 4 6 7 5 2 10 11 8 10 11 11 10 9 9 10 14 13 10 10 9 9 10 9 9 9 8 6 6 4 4 4 6 6 7 8
7 1 4 2 5 3 3 4 7 5 3 3 10 7 5 9 11 9 10 11 11 11 10 9 8 11 9 9 9 9 10 8 9 9 9 10 9 7 5 5 5 5 4 5
9 9 4 1 3 3 3 3 2 2 1 5 6 4 11 4 8 11 11 11 11 9 9 9 10 9 9 10 10 8 9 9 9 9 9 9 9 8 8 7 5 5 4 4
5 4 11 9 6 0 7 4 1 4 1 0 2 7 9 6 8 11 11 11 10 10 9 9 9 9 9 10 10 9 9 8 9 9 9 8 9 6 6 7 5 5 5 5
5 4 5 3 3 2 3 5 2 4 5 1 6 8 4 4 5 7 10 11 11 10 10 11 10 9 9 10 10 10 10 9 9 9 8 8 8 9 8 8 7 5 6 4
3 1 2 4 1 5 2 5 2 2 3 5 8 7 7 7 9 8 9 10 10 9 9 9 9 10 9 9 9 10 10 10 9 9 8 8 8 8 8 7 8 7 7 6
3 5 4 4 9 9 5 4 5 1 4 3 4 6 5 11 13 14 10 9 10 10 10 9 9 9 9 8 9 9 9 10 9 8 8 8 8 8 7 7 7 7 7 7
8 4 5 10 4 5 6 8 8 5 4 4 2 10 1 5 11 12 11 10 9 9 9 9 9 9 9 9 8 9 8 8 8 8 8 8 8 8 7 7 7 7 7 7
6 5 3 3 1 1 6 8 7 6 0 6 4 8 2 4 5 8 11 10 10 10 10 9 9 9 9 9 9 9 9 9 8 8 8 8 8 8 8 7 6 5 4 5
4 4 8 6 5 6 6 8 12 11 5 7 14 12 2 3 1 2 6 10 10 10 10 9 9 9 9 9 9 9 9 9 9 8 8 8 8 8 7 5 4 4 4 5
3 6 9 14 18 7 8 8 15 17 19 12 8 17 16 10 7 8 8 5 8 10 10 10 10 9 10 10 10 9 9 9 9 9 9 9 8 7 6 5 5 4 4 5
5 5 8 17 14 13 15 13 14 18 22 19 21 26 16 15 10 6 7 10 10 9 11 12 10 10 11 13 11 11 11 11 11 9 9 8 8 8 7 6 5 5 4 5
7 5 4 11 10 11 17 24 21 18 19 15 24 23 16 12 12 9 9 9 11 13 10 13 16 16 13 13 13 13 13 9 10 10 9 9 8 8 8 6 5 5 5 4
7 8 4 3 3 11 8 2 9 25 23 24 24 13 17 16 20 10 9 10 12 10 13 12 12 12 12 9 10 10 10 11 11 10 9 8 9 8 7 6 6 4 4 4
9 6 3 5 9 15 23 6 5 7 14 21 23 20 28 17 11 16 8 9 8 9 10 13 12 13 11 12 10 13 12 11 11 12 10 9 9 9 8 7 6 5 3 3
17 10 9 3 7 11 1 8 11 7 18 11 17 23 24 8 10 12 11 7 9 13 10 7 9 8 11 12 10 12 12 13 16 14 12 9 9 8 8 7 7 4 3 3
21 18 22 16 15 10 9 4 5 8 7 2 7 15 11 9 11 6 5 3 1 2 6 7 6 9 10 10 10 12 11 16 13 9 9 9 8 8 8 6 4 4 4 2
11 14 16 13 16 27 6 5 18 7 1 2 5 4 3 4 3 6 7 4 5 7 6 6 5 8 7 9 13 12 13 9 9 10 11 8 8 6 6 7 4 4 3 3
11 12 12 14 11 18 13 6 7 11 17 6 2 2 3 3 3 4 4 7 7 8 6 4 6 6 5 7 8 10 9 9 10 11 9 8 7 7 7 6 5 3 4 3
23 14 13 7 20 15 8 10 11 9 13 12 6 6 5 6 5 7 6 7 7 5 5 4 6 6 6 6 6 5 8 9 11 9 8 7 7 7 5 4 4 4 3 3
15 17 23 18 20 10 12 9 8 9 8 9 7 5 8 8 8 7 5 7 7 7 5 5 7 6 7 6 6 7 8 10 9 8 7 7 6 6 5 4 4 4 4 4
14 18 12 13 8 13 12 11 12 11 10 10 10 9 7 9 9 8 7 7 6 7 6 6 7 7 7 8 7 7 8 8 8 7 6 5 5 5 4 4 2 5 7 8
Wind_Direction
190 277 240 60 38 3 313 317 292 274 135 225 235 247 244 208 192 205 217 227 212 183 184 173 171 171 175 171 177 170 165 177 166 174 176 193 207 216 219 214 227 228 221 216
235 236 30 63 33 321 303 292 291 65 94 193 273 271 253 216 214 191 195 220 220 182 168 165 162 167 176 177 178 185 177 178 178 171 182 174 184 215 200 206 214 212 220 221
246 353 115 39 227 273 267 247 354 331 317 231 269 274 207 221 211 170 200 216 190 186 173 163 161 174 175 185 182 183 187 180 176 181 160 189 225 312 9 263 226 220 213 214
263 75 222 212 261 282 293 19 349 303 321 285 178 288 194 172 176 178 193 207 221 181 180 164 167 176 178 193 176 175 182 183 186 176 181 183 188 210 218 214 226 231 227 224
275 168 232 256 266 23 63 350 311 304 286 299 242 194 263 137 200 204 201 187 198 197 185 176 176 176 181 174 180 173 175 185 187 179 179 188 207 210 223 234 229 222 214 214
265 97 302 267 75 25 67 265 231 259 237 258 213 168 257 185 197 187 188 171 179 177 182 195 171 161 169 165 169 167 174 186 183 182 185 193 205 215 228 240 241 238 230 226
215 191 133 190 200 165 208 292 292 267 191 232 20 176 249 241 188 176 169 162 166 170 166 173 175 164 159 161 163 169 173 192 185 184 191 195 204 213 230 235 235 244 243 234
197 206 157 178 234 159 191 216 255 288 266 201 33 236 251 216 165 157 150 156 157 167 166 173 167 163 161 159 164 169 184 191 187 186 199 196 197 206 221 228 232 240 235 237
223 170 39 68 352 333 134 206 333 306 251 325 219 253 302 125 120 130 150 149 167 172 168 168 168 172 173 168 178 180 184 195 194 191 189 195 200 205 215 225 226 229 238 243
322 104 188 105 344 261 250 318 134 226 238 245 255 226 225 195 183 189 171 168 172 174 165 166 172 175 176 176 174 178 184 191 194 187 184 194 200 208 214 216 230 232 238 234
234 230 127 123 205 177 167 243 220 269 226 228 315 255 310 197 186 187 197 183 182 182 173 170 176 179 177 171 172 179 181 185 190 183 181 191 203 209 211 213 223 225 230 228
212 283 225 204 150 200 195 207 203 156 243 233 154 275 318 24 190 173 189 183 186 178 174 172 172 168 172 173 167 178 184 187 185 179 181 195 201 209 210 220 227 225 228 226
178 227 261 156 189 137 223 205 228 246 338 227 161 259 353 14 11 175 175 180 179 174 175 177 172 173 173 177 178 182 186 191 185 176 181 190 200 199 211 220 225 227 241 249
338 262 234 220 138 124 201 206 214 211 214 220 228 269 280 187 37 312 192 181 181 177 178 180 176 178 179 181 181 183 187 179 179 172 179 188 197 201 207 210 220 245 254 259
219 248 258 265 277 220 229 215 204 216 226 214 225 236 255 268 188 216 218 215 190 182 182 188 187 188 186 183 180 181 179 175 174 176 182 195 192 186 181 207 229 247 256 258
216 244 245 257 273 286 271 242 219 212 231 246 267 265 265 286 308 284 218 203 219 208 192 192 192 194 194 190 186 180 180 179 172 178 191 186 180 174 191 207 224 241 256 264
204 197 215 260 264 271 268 237 234 226 221 204 234 241 247 272 261 240 234 223 212 215 206 195 196 198 201 193 184 185 184 166 171 180 188 183 171 180 191 199 211 231 243 246
190 200 224 255 297 244 253 108 222 223 225 218 239 240 244 226 248 245 232 215 224 212 205 209 199 198 201 192 184 173 169 173 175 183 184 177 173 180 183 191 212 224 228 245
205 206 234 197 216 274 284 252 193 186 246 230 241 243 254 247 289 269 254 238 225 228 217 211 201 199 192 195 187 175 177 171 174 186 186 179 169 175 179 195 208 212 216 248
227 213 224 197 210 227 172 225 230 152 265 218 223 232 241 229 235 264 244 250 270 245 233 219 211 190 182 198 172 174 182 177 189 186 184 170 169 171 180 188 198 203 196 224
206 211 221 225 244 260 231 127 66 135 234 248 263 227 222 216 222 216 190 208 181 331 345 234 197 203 196 175 166 184 182 194 186 160 158 163 164 167 172 178 172 185 216 230
190 198 218 224 229 257 172 203 207 188 104 34 2 358 329 288 277 199 216 254 249 271 278 271 258 219 195 172 173 184 192 178 156 153 157 156 160 164 160 163 185 198 193 227
223 207 199 187 229 284 292 220 221 246 264 252 169 292 275 271 264 261 255 279 261 239 250 243 241 218 194 171 164 173 187 155 145 147 148 153 161 165 162 168 184 186 200 214
235 208 227 215 232 245 252 251 228 221 244 268 258 246 208 242 256 245 242 241 248 226 237 226 221 210 190 175 171 167 153 135 137 139 149 159 157 163 170 169 166 167 199 230
253 229 228 232 235 269 271 267 248 241 248 276 278 248 231 210 245 261 266 246 231 218 210 203 210 197 186 169 180 158 136 133 138 145 157 158 155 157 167 167 169 188 205 182
241 263 253 251 256 232 239 232 259 253 245 244 252 273 231 218 225 233 252 251 230 217 193 198 205 185 175 160 142 131 134 137 144 149 151 155 153 160 142 142 221 231 188 165